Location: Angwan Shehu
(11.2514°N, 7.4613°E)
Time: 10:44:51
(UTC+00:00)

ISS - Pass Details

Date: 14 November 2019
Orbit: 411 x 421 km, 51.6° (Epoch: 14 December)

Event Time Altitude Azimuth Distance (km) Brightness Sun altitude
Rises 18:51:30 0° 220° (SW) 2,339 0.9 -26.3°
Reaches altitude 10° 18:53:35 10° 222° (SW) 1,479 -0.3 -26.8°
Enters shadow 18:54:48 21° 225° (SW) 995 -1.3 -27.1°
